Content
SEND FEEDBACK

Daily
Averages
Monthly
Summary
United States of America

PUT IN BAY, OHIO


Home > North America > United States > Ohio
Elevation: 561 feet     Latitude: 41 39N     Longitude: 082 48W

WEATHER
 
SELECT A DAY
Number of Records: 123,030;   Date Range: 12/10/00 - 9/15/14
 
SHARE

PRINT THIS DATA

[ ← Previous Day ]
WEATHER ALMANAC - MARCH 15, 2013
[ Next Day → ]
[ °C ]   °F
Weather ElementAverageHighLow
Temperature35.3 °F39.4 °F (4:00 pm)32.9 °F (7:00 am)
Dewpoint29.5 °F34.2 °F (9:00 pm)23 °F (1:00 am)
Humidity78.8 %95 % (11:00 pm)61 % (2:00 am)
Barometer29.94 in30.09 in (1:00 am)29.87 in (4:00 pm)
Wind Speed8.1 mph13.8 mph (7:00 am)
Wind Gust21.9 mph (7:00 am)
Weather ElementAverage
Wind DirectionSSW (216.7 °)

Weather ElementTotal
Precipitation0.05 in
Heating Degree Days28.9 (Base 65)
Averaged from 27 records on March 15, 2013
WEATHER CONDITIONS BREAKOUT
WIND DIRECTION BREAKOUT
WEATHER BY HOUR - MARCH 15, 2013
[ °C ]   °F
Local TimeTemperatureDewpointHumidityBarometerVisibilityWind DirectionWind SpeedGust SpeedPrecipitationEventsConditions
1:00 AM33.3 °F23.0 °F66 %30.09 inWSW (250°)6.9 mph
2:00 AM34.0 °F26.0 °F61 %30.08 inWSW (250°)9.2 mph
2:00 AM33.8 °F25.5 °F72 %30.08 inWSW (250°)9.2 mph
3:00 AM33.8 °F23.5 °F66 %30.05 inWest (270°)8.1 mph
4:00 AM34.0 °F24.8 °F69 %30.02 inWest (260°)9.2 mph
5:00 AM33.3 °F26.1 °F75 %30.00 inWSW (250°)11.5 mph
6:00 AM33.1 °F26.6 °F77 %29.97 inWSW (250°)12.7 mph
7:00 AM32.9 °F27.5 °F81 %29.97 inWest (260°)13.8 mph21.9 mph
8:00 AM33.0 °F29.0 °F78 %29.94 inWSW (250°)11.5 mph
8:00 AM32.9 °F28.8 °F85 %29.94 inWSW (250°)11.5 mph
9:00 AM34.0 °F29.3 °F83 %29.94 inWest (260°)11.5 mph
10:00 AM33.8 °F29.5 °F84 %29.94 inWSW (250°)12.7 mph
11:00 AM34.0 °F29.5 °F84 %29.93 inWest (260°)11.5 mph
12:00 PM34.9 °F30.0 °F82 %29.92 inWSW (250°)10.4 mph
1:00 PM36.0 °F29.7 °F78 %29.92 inWest (260°)10.4 mph
2:00 PM37.0 °F30.0 °F69 %29.91 inWest (260°)10.4 mph
2:00 PM37.0 °F30.4 °F77 %29.91 inWest (260°)10.4 mph
3:00 PM38.8 °F31.5 °F75 %29.88 inWSW (240°)8.1 mph
4:00 PM39.4 °F31.3 °F73 %29.87 inWSW (250°)8.1 mph
5:00 PM39.4 °F31.3 °F73 %29.87 inWSW (250°)5.8 mph
6:00 PM39.4 °F31.3 °F73 %29.88 inWSW (250°)3.5 mph
7:00 PM37.6 °F33.4 °F85 %29.89 inNNW (340°)2.3 mph
8:00 PM36.0 °F34.0 °F88 %29.89 inNorth (10°)3.5 mph
8:00 PM36.3 °F33.8 °F91 %29.89 inNorth (10°)3.5 mph0.02 in
9:00 PM35.8 °F34.2 °F94 %29.89 inNE (50°)2.3 mph0.01 in
10:00 PM35.4 °F34.0 °F94 %29.89 inCalm
11:00 PM34.7 °F33.4 °F95 %29.88 inESE (110°)1.2 mph0.02 in
Hourly data recorded from CXHA, located miles away from Put In Bay, Ohio







STORIES FROM OUR PARTNERS